Regional Weather Roundup
Issued by NWS

Home | Current Version | Previous Version | Graphics & Text | Print | Product List | Glossary On
Versions: 1 2 3 4 5 6 7 8 9 10 11 12 13 14 15 16 17 18 19 20 21 22 23 24 25 26 27 28 29 30 31 32 33 34 35 36 37 38 39 40 41 42 43 44 45 46 47 48 49 50
000
ASUS43 KOAX 282210
RWRNE

WEATHER ROUNDUP FOR NEBRASKA
NATIONAL WEATHER SERVICE OMAHA NE
500 PM CDT SAT MAR 28 2015

NOTES: SATELLITE DATA IS BEING USED TO AUGMENT CLOUD COVER ABOVE
       12000 FEET.
       "FAIR" INDICATES FEW OR NO CLOUDS BELOW 12,000 FEET WITH NO
       SIGNIFICANT WEATHER AND/OR OBSTRUCTIONS TO VISIBILITY.

  * THESE STATIONS DO NOT REPORT WEATHER SUCH AS RAIN...SNOW OR FOG.

NEZ001>004-019>022-054>056-282300-
NEBRASKA PANHANDLE

CITY           SKY/WX    TMP DP  RH WIND       PRES   REMARKS
SCOTTSBLUFF    SUNNY     82  27  13 W18G29    29.78F
ALLIANCE       SUNNY     81  34  18 W17G26    29.78F
CHADRON        SUNNY     83  26  12 W25G33    29.70F
KIMBALL        SUNNY     79  24  13 W15G31    29.85F
SIDNEY         SUNNY     79  27  14 SW16G30   29.84F
$$

NEZ057>060-069>072-079>082-282300-
SOUTHWEST NEBRASKA

CITY           SKY/WX    TMP DP  RH WIND       PRES   REMARKS
NORTH PLATTE   SUNNY     77  34  21 S18G28    29.84F
IMPERIAL         N/A     81  29  15 S13       29.83F
LEXINGTON      SUNNY     71  35  26 S17       29.91F
MCCOOK         SUNNY     81  33  17 S15G22    29.87F
OGALLALA       SUNNY     82  32  16 S12G20    29.81F
$$

NEZ005>010-023>029-035>040-094-282300-
NORTH CENTRAL NEBRASKA

CITY           SKY/WX    TMP DP  RH WIND       PRES   REMARKS
VALENTINE      SUNNY     78  32  18 S23G30    29.74F
AINSWORTH      SUNNY     71  35  26 SE23G31   29.80F
BROKEN BOW     SUNNY     70  36  28 S17       29.88F
O`NEILL        SUNNY     62  32  33 SE20G26   29.90F
ORD            SUNNY     63  32  31 S14G28    29.91F
THEDFORD       SUNNY     78  35  21 S12G32    29.81F
$$

NEZ041-046>049-061>064-073>077-083>087-282300-
SOUTH CENTRAL NEBRASKA

CITY           SKY/WX    TMP DP  RH WIND       PRES   REMARKS
GRAND ISLAND   SUNNY     62  34  35 SE16      29.97F
AURORA         SUNNY     60  34  37 SE15G23   29.98F
HASTINGS       SUNNY     63  35  35 SE16      29.95F
HEBRON         SUNNY     62  31  30 SE12      30.00F
HOLDREGE       SUNNY     67  33  27 S18       29.93S
KEARNEY *      SUNNY     66  34  30 SE15G22   29.94F
YORK           SUNNY     57  34  41 SE15      30.00F
$$

NEZ011>018-030>034-042>045-282300-
NORTHEAST NEBRASKA

CITY           SKY/WX    TMP DP  RH WIND       PRES   REMARKS
NORFOLK        SUNNY     56  33  42 S16G24    29.97F
ALBION         SUNNY     58  32  37 S20       29.96F
BLAIR          SUNNY     54  30  39 SE16G25   30.05S
COLUMBUS *     SUNNY     55  34  44 S18       30.02F
FREMONT        SUNNY     55  30  38 SE16G22   30.04F
TEKAMAH        SUNNY     56  28  34 SE29G43   30.04F
WAYNE          SUNNY     55  31  39 S20       30.00F
$$

NEZ050>053-065>068-078-088>093-282300-
SOUTHEAST NEBRASKA

CITY           SKY/WX    TMP DP  RH WIND       PRES   REMARKS
LINCOLN        SUNNY     57  33  40 SE14G23   30.05F
OMAHA EPPLEY   SUNNY     54  29  38 S15G23    30.06F
BEATRICE       SUNNY     56  34  42 S13G21    30.03F
FALLS CITY     SUNNY     54  32  43 SE15G21   30.08F
NEBRASKA CITY  SUNNY     53  27  37 SE15G21   30.08S
PLATTSMOUTH    SUNNY     53  28  36 SE14      30.07F
$$

NEZ044-045-051>053-067-282300-
OMAHA AREA

CITY           SKY/WX    TMP DP  RH WIND       PRES   REMARKS
OMAHA EPPLEY   SUNNY     54  29  38 S15G23    30.06F
BLAIR          SUNNY     54  30  39 SE16G25   30.05S
FREMONT        SUNNY     55  30  38 SE16G22   30.04F
MILLARD        SUNNY     54  31  42 SE15      30.06S
OFFUTT AFB     SUNNY     54  30  40 SE17      30.06F
PLATTSMOUTH    SUNNY     53  28  36 SE14      30.07F
WAHOO          FAIR      55  29  37 SE17G24   30.04F
$$


USA.gov is the U.S. government's official web portal to all federal, state and local government web resources and services.